GW6786 Weather Reports


time (UTC)temp
C
wind
direction
speed
KPH
gust
KPH
rain 1hr
cm
rain 24hr
cm
rain mn
cm
humidity
%
barometer
mb
20260509102104 8 63 0.0 3.2 0.00 0.00 0.00 89 1025.3
20260509101104 8 63 0.0 0.0 0.00 0.00 0.00 87 1025.3
20260509100604 8 63 0.0 0.0 0.00 0.00 0.00 86 1025.3
20260509100104 8 64 0.0 0.0 0.00 0.00 0.00 85 1025.2
20260509095604 9 63 0.0 0.0 0.00 0.00 0.00 85 1025.2
20260509095104 9 64 0.0 0.0 0.00 0.00 0.00 85 1025.1
20260509094604 9 65 0.0 0.0 0.00 0.00 0.00 85 1025.1
20260509094104 9 65 0.0 0.0 0.00 0.00 0.00 84 1025.0
20260509093604 9 65 0.0 0.0 0.00 0.00 0.00 84 1025.0
20260509093104 9 67 0.0 0.0 0.00 0.00 0.00 84 1025.0
20260509092604 9 67 0.0 0.0 0.00 0.00 0.00 84 1024.9
20260509092104 9 68 0.0 0.0 0.00 0.00 0.00 84 1025.0
20260509091104 9 68 0.0 0.0 0.00 0.00 0.00 85 1024.9
20260509090604 9 68 0.0 0.0 0.00 0.00 0.00 86 1024.9
20260509090104 9 68 0.0 0.0 0.00 0.00 0.00 86 1024.8
20260509085604 9 68 0.0 0.0 0.00 0.00 0.00 86 1024.8
20260509085104 9 68 0.0 0.0 0.00 0.00 0.00 86 1024.8
20260509084604 9 68 0.0 0.0 0.00 0.00 0.00 86 1024.7
20260509084104 9 68 0.0 0.0 0.00 0.00 0.00 86 1024.7
20260509083604 9 68 0.0 0.0 0.00 0.00 0.00 86 1024.6
20260509083104 9 69 0.0 0.0 0.00 0.00 0.00 86 1024.6
20260509082604 9 69 0.0 0.0 0.00 0.00 0.00 86 1024.6
20260509082104 9 69 0.0 0.0 0.00 0.00 0.00 86 1024.5
20260509081604 9 69 0.0 0.0 0.00 0.00 0.00 86 1024.4
20260509081104 9 69 0.0 0.0 0.00 0.00 0.00 86 1024.3
20260509080604 9 69 0.0 0.0 0.00 0.00 0.00 86 1024.2
20260509080104 9 69 0.0 0.0 0.00 0.00 0.00 86 1024.2
20260509075604 10 69 0.0 0.0 0.00 0.00 0.00 86 1024.1
20260509075105 10 69 0.0 0.0 0.00 0.00 0.00 85 1024.0
20260509074604 10 69 0.0 0.0 0.00 0.00 0.00 85 1023.9
20260509073604 10 69 0.0 0.0 0.00 0.00 0.00 84 1023.9
20260509073104 10 69 0.0 0.0 0.00 0.00 0.00 84 1023.8
20260509072604 10 69 0.0 0.0 0.00 0.00 0.00 84 1023.8
20260509072104 10 69 0.0 3.2 0.00 0.00 0.00 83 1023.8
20260509071604 10 69 0.0 3.2 0.00 0.00 0.00 83 1023.7
20260509070604 11 69 1.6 3.2 0.00 0.00 0.00 82 1023.6
20260509070104 11 69 1.6 4.8 0.00 0.00 0.00 82 1023.6
20260509065604 11 69 1.6 4.8 0.00 0.00 0.00 81 1023.5
20260509065104 11 69 1.6 8.0 0.00 0.00 0.00 81 1023.5
20260509064604 12 68 3.2 8.0 0.00 0.00 0.00 81 1023.5
20260509063604 12 62 3.2 8.0 0.00 0.00 0.00 80 1023.4
20260509063104 12 70 3.2 8.0 0.00 0.00 0.00 79 1023.4
20260509062604 12 70 4.8 8.0 0.00 0.00 0.00 79 1023.4
20260509061604 12 66 4.8 11.3 0.00 0.00 0.00 78 1023.3
20260509061104 12 75 6.4 11.3 0.00 0.00 0.00 77 1023.2
20260509060604 12 75 3.2 12.9 0.00 0.00 0.00 77 1023.2
20260509055604 13 61 3.2 12.9 0.00 0.00 0.00 76 1023.0
20260509055104 13 71 1.6 12.9 0.00 0.00 0.00 76 1023.0
20260509054604 13 63 4.8 12.9 0.00 0.00 0.00 75 1023.0
20260509054104 13 58 4.8 11.3 0.00 0.00 0.00 75 1022.9
20260509053604 13 81 3.2 8.0 0.00 0.00 0.00 74 1022.9
20260509053104 13 80 4.8 8.0 0.00 0.00 0.00 74 1022.9
20260509052104 14 75 4.8 12.9 0.00 0.00 0.00 72 1022.8
20260509051604 14 73 6.4 12.9 0.00 0.00 0.00 70 1022.8
20260509050604 15 59 3.2 12.9 0.00 0.00 0.00 65 1022.8
20260509050104 15 67 3.2 4.8 0.00 0.00 0.00 65 1022.8
20260509045604 16 214 1.6 4.8 0.00 0.00 0.00 63 1022.8
20260509045104 16 217 1.6 4.8 0.00 0.00 0.00 63 1022.8
20260509044604 16 218 1.6 4.8 0.00 0.00 0.00 63 1022.8
20260509044104 16 218 3.2 4.8 0.00 0.00 0.00 62 1022.8
20260509043604 17 252 1.6 3.2 0.00 0.00 0.00 56 1022.8
20260509042604 16 252 1.6 8.0 0.00 0.00 0.00 55 1022.8
20260509042104 16 252 1.6 8.0 0.00 0.00 0.00 56 1022.8
20260509041604 16 248 1.6 4.8 0.00 0.00 0.00 56 1022.8
20260509040104 16 260 4.8 12.9 0.00 0.00 0.00 57 1022.7
20260509035604 17 259 3.2 12.9 0.00 0.00 0.00 56 1022.7
20260509035104 16 263 6.4 12.9 0.00 0.00 0.00 58 1022.7
20260509034603 16 272 0.0 4.8 0.00 0.00 0.00 58 1022.8
20260509033604 17 267 4.8 12.9 0.00 0.00 0.00 58 1022.8
20260509033104 16 246 3.2 12.9 0.00 0.00 0.00 59 1022.8
20260509032604 16 247 3.2 11.3 0.00 0.00 0.00 61 1022.8
20260509032104 16 264 3.2 12.9 0.00 0.00 0.00 62 1022.8
20260509031604 16 240 4.8 12.9 0.00 0.00 0.00 61 1022.8
20260509031103 16 250 8.0 12.9 0.00 0.00 0.00 62 1022.9
20260509030604 15 208 1.6 4.8 0.00 0.00 0.00 63 1023.0
20260509025604 15 198 1.6 4.8 0.00 0.00 0.00 65 1023.1
20260509025104 15 198 1.6 9.7 0.00 0.00 0.00 64 1023.2
20260509024604 15 200 4.8 9.7 0.00 0.00 0.00 64 1023.3
20260509024104 15 200 3.2 9.7 0.00 0.00 0.00 64 1023.3
20260509023604 15 203 4.8 9.7 0.00 0.00 0.00 62 1023.4
20260509023104 16 229 3.2 8.0 0.00 0.00 0.00 62 1023.5
20260509022604 16 264 3.2 8.0 0.00 0.00 0.00 62 1023.6
20260509021603 16 241 4.8 12.9 0.00 0.00 0.00 63 1023.5
20260509021103 16 252 3.2 11.3 0.00 0.00 0.00 63 1023.6
20260509020604 15 256 4.8 9.7 0.00 0.00 0.00 63 1023.7
20260509020104 15 312 4.8 8.0 0.00 0.00 0.00 64 1023.8
20260509015604 15 262 1.6 8.0 0.00 0.00 0.00 65 1023.8
20260509015104 15 320 4.8 9.7 0.00 0.00 0.00 65 1023.9
20260509014605 15 305 4.8 9.7 0.00 0.00 0.00 65 1023.9
20260509014104 14 271 4.8 11.3 0.00 0.00 0.00 65 1023.9
20260509013604 14 266 4.8 16.1 0.00 0.00 0.00 66 1024.0
20260509012604 14 262 9.7 14.5 0.00 0.00 0.00 63 1024.1
20260509012105 14 257 8.0 14.5 0.00 0.00 0.00 64 1024.1
20260509011604 14 218 1.6 12.9 0.00 0.00 0.00 68 1024.1
20260509011105 14 253 4.8 12.9 0.00 0.00 0.00 66 1024.1
20260509010604 13 242 4.8 9.7 0.00 0.00 0.00 65 1024.2
20260509010105 13 284 4.8 8.0 0.00 0.00 0.00 65 1024.1
20260509005604 13 301 4.8 9.7 0.00 0.00 0.00 66 1024.2
20260509005105 13 304 4.8 9.7 0.00 0.00 0.00 66 1024.2
20260509004605 13 327 4.8 11.3 0.00 0.00 0.00 67 1024.2
20260509004105 13 269 3.2 11.3 0.00 0.00 0.00 66 1024.2
20260509003604 13 318 4.8 11.3 0.00 0.00 0.00 63 1024.2
20260509003105 13 255 4.8 11.3 0.00 0.00 0.00 65 1024.3
20260509002104 12 238 8.0 11.3 0.00 0.00 0.00 67 1024.3
20260509001605 12 249 4.8 11.3 0.00 0.00 0.00 68 1024.3
20260509001105 12 245 4.8 9.7 0.00 0.00 0.00 70 1024.3
20260509000605 11 256 6.4 9.7 0.00 0.00 0.00 71 1024.3
20260508235605 11 229 1.6 8.0 0.00 0.00 0.00 73 1024.3
20260508235105 10 230 4.8 4.8 0.00 0.00 0.00 76 1024.3
20260508234105 10 210 0.0 3.2 0.00 0.00 0.00 77 1024.3
20260508233605 10 210 3.2 4.8 0.00 0.00 0.00 77 1024.2
20260508233104 10 210 3.2 4.8 0.00 0.00 0.00 77 1024.2
20260508232604 9 210 1.6 4.8 0.00 0.00 0.00 77 1024.3
20260508232104 9 210 3.2 4.8 0.00 0.00 0.00 78 1024.2
20260508231604 9 210 3.2 4.8 0.00 0.00 0.00 79 1024.2
20260508230105 8 210 3.2 4.8 0.00 0.00 0.00 79 1024.2
20260508225604 8 210 1.6 3.2 0.00 0.00 0.00 79 1024.2
20260508225105 8 210 3.2 3.2 0.00 0.00 0.00 80 1024.1
20260508224604 8 210 1.6 4.8 0.00 0.00 0.00 81 1024.1
20260508224104 8 210 3.2 4.8 0.00 0.00 0.00 81 1024.1
20260508223604 8 210 1.6 3.2 0.00 0.00 0.00 83 1024.1
20260508223104 8 210 3.2 4.8 0.00 0.00 0.00 83 1024.0
20260508222604 8 210 3.2 4.8 0.00 0.00 0.00 83 1024.0
20260508222104 7 210 0.0 4.8 0.00 0.00 0.00 84 1023.9
20260508220604 7 210 3.2 4.8 0.00 0.00 0.00 85 1023.8
20260508220104 7 210 3.2 4.8 0.00 0.00 0.00 85 1023.8
20260508215604 7 210 3.2 4.8 0.00 0.00 0.00 86 1023.8
20260508215105 7 210 1.6 4.8 0.00 0.00 0.00 86 1023.7
20260508214605 7 210 4.8 4.8 0.00 0.00 0.00 87 1023.7
20260508214105 7 210 3.2 3.2 0.00 0.00 0.00 87 1023.6
20260508213605 6 210 3.2 3.2 0.00 0.00 0.00 88 1023.5
20260508213104 6 210 0.0 3.2 0.00 0.00 0.00 88 1023.5
20260508212604 6 210 1.6 4.8 0.00 0.00 0.00 88 1023.4
20260508212104 6 210 3.2 4.8 0.00 0.00 0.00 88 1023.4
20260508211604 6 210 3.2 4.8 0.00 0.00 0.00 88 1023.3
20260508211104 6 210 3.2 4.8 0.00 0.00 0.00 88 1023.3
20260508210604 6 210 4.8 4.8 0.00 0.00 0.00 88 1023.2
20260508210104 6 210 4.8 4.8 0.00 0.00 0.00 88 1023.2
20260508205604 6 210 3.2 4.8 0.00 0.00 0.00 88 1023.1
20260508205104 6 210 3.2 8.0 0.00 0.00 0.00 88 1023.1
20260508204605 6 210 4.8 8.0 0.00 0.00 0.00 88 1023.0
20260508204104 6 210 4.8 8.0 0.00 0.00 0.00 88 1023.0
20260508203605 6 210 4.8 8.0 0.00 0.00 0.00 89 1023.0
20260508203104 6 210 4.8 4.8 0.00 0.00 0.00 89 1022.9
20260508202604 6 210 4.8 4.8 0.00 0.00 0.00 89 1022.9
20260508202104 6 210 3.2 8.0 0.00 0.00 0.00 89 1022.8
20260508201604 6 210 4.8 8.0 0.00 0.00 0.00 89 1022.8
20260508201104 6 210 6.4 8.0 0.00 0.00 0.00 90 1022.8
20260508200605 6 210 4.8 8.0 0.00 0.00 0.00 90 1022.7
20260508200104 6 211 6.4 8.0 0.00 0.00 0.00 90 1022.6
20260508195604 6 213 4.8 8.0 0.00 0.00 0.00 90 1022.6
20260508195104 5 213 3.2 8.0 0.00 0.00 0.00 90 1022.5
20260508194604 5 213 4.8 8.0 0.00 0.00 0.00 90 1022.5
20260508194104 5 213 3.2 4.8 0.00 0.00 0.00 90 1022.5
20260508193604 5 213 4.8 4.8 0.00 0.00 0.00 90 1022.3
20260508193104 5 213 3.2 8.0 0.00 0.00 0.00 90 1022.3
20260508192604 5 213 4.8 8.0 0.00 0.00 0.00 90 1022.2
20260508191604 6 213 3.2 8.0 0.00 0.00 0.00 90 1022.2
20260508190604 6 213 4.8 8.0 0.00 0.00 0.00 91 1022.1
20260508190104 5 214 4.8 8.0 0.00 0.00 0.00 91 1022.1
20260508185604 5 215 6.4 8.0 0.00 0.00 0.00 91 1022.0
20260508185104 5 225 4.8 8.0 0.00 0.00 0.00 91 1022.0
20260508184604 5 225 4.8 4.8 0.00 0.00 0.00 90 1022.0
20260508183604 5 223 0.0 4.8 0.00 0.00 0.00 90 1022.0
20260508183104 6 223 1.6 8.0 0.00 0.00 0.00 90 1022.0
20260508182604 6 223 6.4 8.0 0.00 0.00 0.00 91 1022.0
20260508182104 5 227 8.0 8.0 0.00 0.00 0.00 91 1022.0
20260508181603 5 229 4.8 8.0 0.00 0.00 0.00 91 1022.0
20260508181104 5 229 3.2 4.8 0.00 0.00 0.00 91 1021.9
20260508180604 5 229 4.8 4.8 0.00 0.00 0.00 91 1021.9
20260508180104 5 229 3.2 8.0 0.00 0.00 0.00 91 1021.9
20260508175604 5 229 3.2 8.0 0.00 0.00 0.00 91 1021.8
20260508175104 5 215 4.8 4.8 0.00 0.00 0.00 90 1021.7
20260508174603 5 210 3.2 4.8 0.00 0.00 0.00 90 1021.7
20260508174104 6 202 3.2 4.8 0.00 0.00 0.00 90 1021.7
20260508173104 6 202 3.2 9.7 0.00 0.00 0.00 90 1021.7
20260508172604 6 204 6.4 9.7 0.00 0.00 0.00 90 1021.7
20260508172104 6 200 3.2 9.7 0.00 0.00 0.00 90 1021.7
20260508171604 6 200 4.8 9.7 0.00 0.00 0.00 90 1021.7
20260508171104 6 192 8.0 9.7 0.00 0.00 0.00 90 1021.7
20260508170604 6 201 8.0 9.7 0.00 0.00 0.00 90 1021.7
20260508165604 6 205 4.8 9.7 0.00 0.00 0.00 89 1021.7
20260508164604 6 198 4.8 11.3 0.00 0.00 0.00 89 1021.7
20260508164105 6 198 4.8 11.3 0.00 0.00 0.00 90 1021.8
20260508163604 6 202 4.8 8.0 0.00 0.00 0.00 89 1021.7
20260508162104 6 203 4.8 8.0 0.00 0.00 0.00 89 1021.7
20260508161604 6 202 4.8 9.7 0.00 0.00 0.00 88 1021.7
20260508160604 6 194 6.4 11.3 0.00 0.00 0.00 88 1021.7
20260508155604 6 197 8.0 12.9 0.00 0.00 0.00 89 1021.7
20260508155104 6 204 4.8 14.5 0.00 0.00 0.00 89 1021.7
20260508154604 6 198 11.3 14.5 0.00 0.00 0.00 89 1021.6
20260508153604 6 203 11.3 12.9 0.00 0.00 0.00 89 1021.7
20260508153104 6 202 9.7 12.9 0.00 0.00 0.00 90 1021.7
20260508152603 6 201 8.0 12.9 0.00 0.00 0.00 91 1021.7
20260508152104 6 202 9.7 11.3 0.00 0.00 0.00 91 1021.7
20260508151604 6 198 6.4 11.3 0.00 0.00 0.00 91 1021.7
20260508151104 5 228 4.8 8.0 0.00 0.00 0.00 90 1021.8
20260508150604 5 237 3.2 4.8 0.00 0.00 0.00 90 1021.8
20260508150104 6 248 4.8 8.0 0.00 0.00 0.00 89 1021.7
20260508145604 6 248 4.8 8.0 0.00 0.00 0.00 89 1021.8
20260508144605 6 201 4.8 9.7 0.00 0.00 0.00 89 1021.8
20260508144104 6 198 3.2 11.3 0.00 0.00 0.00 88 1021.7
20260508143604 6 189 3.2 11.3 0.00 0.00 0.00 88 1021.7
20260508143104 6 203 3.2 11.3 0.00 0.00 0.00 88 1021.7
20260508142604 6 200 6.4 11.3 0.00 0.00 0.00 88 1021.6
20260508142104 6 191 9.7 11.3 0.00 0.00 0.00 88 1021.6
20260508141604 6 198 8.0 12.9 0.00 0.00 0.00 87 1021.6
20260508141105 6 201 8.0 14.5 0.00 0.00 0.00 87 1021.6
20260508140604 6 207 9.7 14.5 0.00 0.00 0.00 87 1021.5
20260508140104 6 201 9.7 14.5 0.00 0.00 0.00 87 1021.5
20260508135603 6 205 9.7 16.1 0.00 0.00 0.00 87 1021.6
20260508135104 6 204 11.3 16.1 0.00 0.00 0.00 87 1021.5
20260508134605 6 200 11.3 19.3 0.00 0.00 0.00 87 1021.5
20260508134105 6 207 11.3 19.3 0.00 0.00 0.00 88 1021.6
20260508133604 6 206 11.3 16.1 0.00 0.00 0.00 88 1021.6
20260508133104 6 203 8.0 20.9 0.00 0.00 0.00 89 1021.6
20260508132605 6 206 11.3 20.9 0.00 0.00 0.00 89 1021.5
20260508132104 6 213 6.4 9.7 0.00 0.00 0.00 88 1021.5
20260508131605 6 236 8.0 8.0 0.00 0.00 0.00 88 1021.5
20260508131104 6 200 4.8 16.1 0.00 0.00 0.00 88 1021.6
20260508130604 6 263 4.8 16.1 0.00 0.00 0.00 88 1021.7
20260508125604 6 249 8.0 16.1 0.00 0.00 0.00 88 1021.7
20260508125104 6 205 6.4 16.1 0.00 0.00 0.00 88 1021.6
20260508124604 6 245 6.4 16.1 0.00 0.00 0.00 87 1021.6
20260508124105 6 240 6.4 12.9 0.00 0.00 0.00 86 1021.6
20260508123604 6 256 8.0 16.1 0.00 0.00 0.00 86 1021.7
20260508123105 6 192 9.7 16.1 0.00 0.00 0.00 87 1021.7
20260508122604 6 203 4.8 16.1 0.00 0.00 0.00 86 1021.7
20260508122105 6 241 6.4 16.1 0.00 0.00 0.00 86 1021.7
20260508121104 7 196 6.4 16.1 0.00 0.00 0.00 86 1021.6
20260508120604 7 216 6.4 16.1 0.00 0.00 0.00 86 1021.5
20260508120105 7 214 8.0 16.1 0.00 0.00 0.00 86 1021.5
20260508115604 7 205 4.8 19.3 0.00 0.00 0.00 86 1021.5
20260508115105 7 238 6.4 19.3 0.00 0.00 0.00 86 1021.5
20260508114604 7 203 4.8 20.9 0.00 0.00 0.00 86 1021.4
20260508114104 7 203 11.3 24.1 0.00 0.00 0.00 86 1021.3
20260508113604 7 207 8.0 24.1 0.00 0.00 0.00 86 1021.4
20260508113104 7 207 9.7 24.1 0.00 0.00 0.00 86 1021.4
20260508112604 7 208 9.7 19.3 0.00 0.00 0.00 86 1021.3
20260508112105 7 208 9.7 25.7 0.00 0.00 0.00 86 1021.3
20260508111604 7 229 9.7 25.7 0.00 0.00 0.00 86 1021.3
20260508111104 7 203 11.3 27.4 0.00 0.00 0.00 86 1021.3
20260508110604 7 209 17.7 27.4 0.00 0.00 0.00 86 1021.2
20260508110104 7 215 11.3 24.1 0.00 0.00 0.00 86 1021.2
20260508105605 7 202 16.1 24.1 0.00 0.00 0.00 87 1021.2
20260508105104 6 202 14.5 20.9 0.00 0.00 0.00 87 1021.2
20260508104104 6 205 11.3 24.1 0.00 0.00 0.00 87 1021.2
20260508103604 6 209 9.7 16.1 0.00 0.00 0.00 87 1021.2
20260508103104 6 205 8.0 12.9 0.00 0.00 0.00 88 1021.2
20260508102605 6 237 8.0 12.9 0.00 0.00 0.00 87 1021.2